Weather History for Covington, KY

Change the Weather History Date:

Saturday, July 20, 2013

  Actual Average Record
Temperature  
Mean Temperature 80 °F 76 °F  
Max Temperature 88 °F 86 °F 105 °F (1934)
Min Temperature 71 °F 66 °F 50 °F (1947)
Degree Days  
Heating Degree Days 0 0  
Month to date heating degree days 0 0  
Since 1 June heating degree days 1 15  
Since 1 July heating degree days 0 0  
Cooling Degree Days 15 11  
Month to date cooling degree days 240 218  
Year to date cooling degree days 618 538  
Since 1 June cooling degree days 479 444  
Growing Degree Days 30 (Base 50)    
Moisture  
Dew Point 72 °F    
Average Humidity 78    
Maximum Humidity 93    
Minimum Humidity 63    
Precipitation  
Precipitation T in 0.12 in 3.77 in (1925)
Month to date precipitation 4.41 2.40  
Year to date precipitation 28.31 25.02  
Snow  
Snow 0.00 in 0.00 in 0.00 in ()
Month to date snowfall 0.0 0.0  
Since 1 June snowfall 0.0 0.0  
Since 1 July snowfall 0.0 0.0  
Snow Depth 0.00 in    
Sea Level Pressure  
Sea Level Pressure 29.90 in    
Wind  
Wind Speed 7 mph (SW)    
Max Wind Speed 29 mph    
Max Gust Speed 37 mph    
Visibility 10 miles    
Events Rain , Thunderstorm    
T = Trace of Precipitation, MM = Missing Value Source: NWS Daily Summary

Daily Weather History Graph

Daily Weather History Graph

Search for Another Location

Airport:

Trip Planner

Search our weather history database for the weather conditions in past years. The results will help you decide how hot, cold, wet, or windy it might be!

Date:

Astronomy

Jul. 20, 2013 Rise Set
Actual Time 6:29 AM EDT 9:00 PM EDT
Civil Twilight 5:58 AM EDT 9:31 PM EDT
Nautical Twilight 5:20 AM EDT 10:09 PM EDT
Astronomical Twilight 4:37 AM EDT 10:51 PM EDT
Moon 7:03 PM EDT (7/20) 4:08 AM EDT (7/20)
Length of Visible Light 15h 32m
Length of Day
14h 31m
Waxing Gibbous, 93% of the Moon is Illuminated
Jul 20
Waxing Gibbous
Jul 22
Full
Jul 29
Last Quarter
Aug 6
New
Aug 14
First Quarter

Hourly Weather History & Observations

Time (EDT) Temp. Heat Index Dew Point Humidity Pressure Visibility Wind Dir Wind Speed Gust Speed Precip Events Conditions
12:52 AM 77.0 °F - 72.0 °F 84% 29.92 in 10.0 mi SW 4.6 mph - N/A   Clear
1:52 AM 77.0 °F - 72.0 °F 84% 29.93 in 10.0 mi SW 6.9 mph - N/A   Clear
2:52 AM 75.9 °F - 72.0 °F 87% 29.91 in 10.0 mi SW 6.9 mph - N/A   Clear
3:52 AM 75.0 °F - 71.1 °F 87% 29.89 in 10.0 mi SW 8.1 mph - N/A   Clear
4:52 AM 75.0 °F - 71.1 °F 87% 29.87 in 10.0 mi SW 5.8 mph - N/A   Clear
5:52 AM 73.9 °F - 71.1 °F 91% 29.87 in 10.0 mi SW 6.9 mph - N/A   Scattered Clouds
6:52 AM 73.9 °F - 71.1 °F 91% 29.89 in 10.0 mi SW 8.1 mph - N/A   Scattered Clouds
7:52 AM 75.9 °F - 72.0 °F 87% 29.91 in 9.0 mi SW 8.1 mph - N/A   Scattered Clouds
8:52 AM 79.0 °F - 73.0 °F 82% 29.91 in 10.0 mi SW 10.4 mph - N/A   Scattered Clouds
9:52 AM 82.0 °F 87.4 °F 73.0 °F 74% 29.91 in 10.0 mi WSW 9.2 mph 16.1 mph N/A   Partly Cloudy
10:52 AM 82.9 °F 88.8 °F 73.0 °F 72% 29.91 in 10.0 mi WSW 13.8 mph 20.7 mph N/A   Scattered Clouds
11:52 AM 84.0 °F 90.2 °F 73.0 °F 69% 29.91 in 10.0 mi SSW 11.5 mph - N/A   Mostly Cloudy
12:52 PM 86.0 °F 93.0 °F 73.0 °F 65% 29.91 in 10.0 mi WSW 9.2 mph 18.4 mph N/A   Mostly Cloudy
1:52 PM 87.1 °F 96.3 °F 75.0 °F 67% 29.88 in 10.0 mi SW 8.1 mph - N/A   Scattered Clouds
2:52 PM 87.1 °F 95.4 °F 73.9 °F 65% 29.86 in 10.0 mi SW 13.8 mph 21.9 mph N/A   Mostly Cloudy
3:52 PM 88.0 °F 95.6 °F 73.0 °F 61% 29.85 in 10.0 mi WSW 11.5 mph 19.6 mph N/A   Mostly Cloudy
4:06 PM 84.2 °F 88.4 °F 69.8 °F 62% 29.89 in 10.0 mi WSW 10.4 mph 18.4 mph N/A Thunderstorm Thunderstorm
4:26 PM 73.4 °F - 69.8 °F 88% 29.91 in 7.0 mi NNW 17.3 mph 32.2 mph 0.00 in Rain , Thunderstorm Light Thunderstorms and Rain
4:52 PM 73.0 °F - 70.0 °F 90% 29.87 in 10.0 mi SW 3.5 mph - 0.00 in Rain , Thunderstorm Light Thunderstorms and Rain
5:02 PM 73.4 °F - 71.6 °F 94% 29.89 in 6.0 mi SSW 4.6 mph - 0.00 in Rain Light Rain
5:52 PM 75.0 °F - 71.1 °F 87% 29.87 in 10.0 mi WNW 8.1 mph - 0.00 in   Mostly Cloudy
6:52 PM 75.9 °F - 70.0 °F 82% 29.88 in 10.0 mi Variable 3.5 mph - N/A   Mostly Cloudy
8:52 PM 73.9 °F - 71.1 °F 91% 29.89 in 10.0 mi SE 6.9 mph - N/A   Mostly Cloudy
9:52 PM 75.0 °F - 70.0 °F 84% 29.90 in 10.0 mi North 3.5 mph - N/A   Overcast
10:52 PM 73.9 °F - 71.1 °F 91% 29.92 in 10.0 mi Calm Calm - N/A   Overcast
11:52 PM 73.9 °F - 70.0 °F 87% 29.92 in 10.0 mi NW 3.5 mph - N/A   Mostly Cloudy